Skip Page Navigation
NASA JPL Caltech
NASA Logo - Jet Propulsion Laboratory + View the NASA Portal
+ Near-Earth Object (NEO) Program
Search JPL
JPL Home Earth Solar System Stars & Galaxies Technology
JPL Solar System Dynamics
BODIES ORBITS EPHEMERIDES TOOLS PHYSICAL DATA DISCOVERY FAQ SITE MAP
JPL Small-Body Database Browser
Search: [ help ]  
(2007 TU24)
Classification: Apollo [NEO, PHA]          SPK-ID: 3388315
Ephemeris | Orbit Diagram | Orbital Elements | Physical Parameters | Close-Approach Data ]

[ show orbit diagram ]
Orbital Elements at Epoch 2456400.5 (2013-Apr-18.0) TDB
Reference: JPL 78 (heliocentric ecliptic J2000)
 Element Value Uncertainty (1-sigma)   Units 
e .5345150275136001 2.0619e-08  
a 2.042495913654333 8.636e-08 AU
q .9507511541709714 1.6866e-08 AU
i 5.623106924288819 2.2922e-06 deg
node 127.0441683681982 1.8225e-06 deg
peri 334.2309051634882 5.6897e-06 deg
M 290.3735865301806 4.1479e-05 deg
tp 2456606.710960618899
(2013-Nov-10.21096062)
0.00013592 JED
period 1066.203788523192
2.92
6.7621e-05
1.851e-07
d
yr
n .337646521120169 2.1414e-08 deg/d
Q 3.134240673137695 1.3252e-07 AU
  Orbit Determination Parameters
   # obs. used (total)      665  
   # delay obs. used      4  
   # Doppler obs. used      7  
   data-arc span      1093 days (2.99 yr)  
   first obs. used      2007-10-11  
   last obs. used      2010-10-08  
   planetary ephem.      DE405  
   SB-pert. ephem.      SB405-CPV-2  
   condition code      0  
   fit RMS      .40196  
   data source      ORB  
   producer      Otto Matic  
   solution date      2011-Sep-14 20:20:42  

Additional Information
 Earth MOID = .000175627 AU 
 T_jup = 3.601 
[ show covariance matrix ]

Ephemeris | Orbit Diagram | Orbital Elements | Physical Parameters | Close-Approach Data ]

Physical Parameter Table
Parameter Symbol Value Units Sigma Reference Notes
absolute magnitude H 20.295 mag .61081 78 autocmod 2.5a
rotation period rot_per 26. h n/a Asteroid Lightcurve DataBase (Rev. 2013-May-01) Result based on less than full coverage, so that the period may be wrong by 30 percent or so.
Published Reference List:
[Pravec, P.; Wolf, M.; Sarounova, L. (2008) http://www.asu.cas.cz/~ppravec/neo.htm]

[ hide close-approach data ]
Close-Approach Data   ...sorted by Date/Time (TDB)
Date/Time (TDB) Time Uncertainty
(days_HH:MM)
Body Nominal Distance (AU) Minimum Distance (AU) Maximum Distance (AU) V-relative (km/s) V-infinity (km/s) JD (TDB) Time Uncertainty (minutes) Semi-major axis (km) Semi-minor axis (km) range-LOV angle (deg) N-sigma BP Orbit Ref. Reference Modified
1911-Jan-02 11:57 00:02 Earth 0.0559677381052903 0.0559606324864964 0.0559748442221487 8.06879805099399 8.06289570552764 2419038.998077040 2.83457684838641 257.203464677398 1.20167613426202 36.5129638584325 2426695.70220633 T 78 CATAB v2.0c-linF95 2011-Sep-15 10:07:54 2011-Sep-15 13:00
1930-Dec-05 19:44 00:02 Earth 0.0821306722547159 0.0821225293490348 0.0821388192011462 9.03241322276745 9.02882078252607 2426316.322434213 2.5859256553006 684.282457314164 2.74702524533873 58.7571280856491 2405994.82463692 T 78 CATAB v2.0c-linF95 2011-Sep-15 10:07:54 2011-Sep-15 13:00
1950-Nov-20 15:35 00:02 Earth 0.145235197088939 0.145199540568985 0.145270856501976 11.8091529532397 11.8075993135859 2433606.149805651 2.11214972126714 1797.5386744978 3.86389578227462 30.9904430720632 2104270.8185372 T 78 CATAB v2.0c-linF95 2011-Sep-15 10:07:54 2011-Sep-15 13:00
1960-Jan-24 13:17 < 00:01 Vesta 0.0490505229054681 0.0490229372669478 0.0490781090748862 12.2421910852395 12.2421908870906 2436958.054124548 0.392255458290768 1398.39980387924 12.9503310052548 10.4904231847842 103226.532600796 T 78 CATAB v2.0c-linF95 2011-Sep-15 10:07:54 2011-Sep-15 13:00
1970-Nov-13 03:46 00:01 Earth 0.218185444183974 0.218150021700815 0.218220867157618 14.455542670202 14.4546978488713 2440903.657230752 1.23073229463915 1745.5853373994 4.44000197163646 21.3510444781184 2118447.70656262 T 78 CATAB v2.0c-linF95 2011-Sep-15 10:07:54 2011-Sep-15 13:00
1988-Feb-27 06:58 < 00:01 Earth 0.292362395575401 0.292337280901746 0.292387510092624 17.8019089946361 17.801397041143 2447218.790783197 0.593058435740225 1191.10989785012 1.19274289257641 -4.20154244484455 2272088.99281657 T 78 CATAB v2.0c-linF95 2011-Sep-15 10:07:54 2011-Sep-15 13:00
1990-Oct-29 02:02 < 00:01 Earth 0.428182319789139 0.428161226878623 0.428203412737892 21.3572773649011 21.3569859976759 2448193.585233126 0.399207059089289 1064.28551951195 5.1856259703611 12.2922331495308 2330900.42105891 T 78 CATAB v2.0c-linF95 2011-Sep-15 10:07:54 2011-Sep-15 13:00
2008-Jan-29 08:34 < 00:01 Earth 0.0037043894208647 0.00370438050751221 0.00370439833421729 9.24840262880618 9.17029981462409 2454494.857524250 0.000551693246233428 0.285154681980603 0.244677350982827 -17.3608962026662 1242146.83598437 T 78 CATAB v2.0c-linF95 2011-Sep-15 10:07:54 2011-Sep-15 13:00
2008-Jan-29 15:41 < 00:01 Moon 0.00565068466868527 0.00565067571512315 0.00565069362224747 9.83508428851879 9.83449455925523 2454495.153620349 0.000464159628789814 0.437532200935288 0.365085789145626 -13.787893858369 1897296.00861135 T 78 CATAB v2.0c-linF95 2011-Sep-15 10:07:54 2011-Sep-15 13:00
2010-Nov-06 19:40 < 00:01 Earth 0.310256628167502 0.310253271266342 0.310259985069622 17.6715630657092 17.6710770813497 2455507.319675879 0.0838636698708691 166.408156228407 4.87596792872028 15.224880389906 2125401.23713693 T 78 CATAB v2.0c-linF95 2011-Sep-15 10:07:54 2011-Sep-15 13:00
2043-Mar-04 18:34 < 00:01 Earth 0.400323758124029 0.400279015719635 0.400368500359493 20.7488794989919 20.7485587172084 2467313.274054748 0.859304583151244 2188.11681626509 1.17422415474877 -3.71211716229454 2903710.46715877 T 78 CATAB v2.0c-linF95 2011-Sep-15 10:07:54 2011-Sep-15 13:00
2046-Jan-20 04:34 00:05 Earth 0.0144788609655984 0.0144508979937747 0.0145068355070338 8.30135596787746 8.27915816662121 2468365.690415881 5.22289457366229 874.167290724073 0.680182609906947 -22.2126342737622 710449.847903593 T 78 CATAB v2.0c-linF95 2011-Sep-15 10:07:54 2011-Sep-15 13:00
2048-Nov-02 13:53 00:02 Earth 0.399981448715202 0.399878253767534 0.400084644035401 20.1256228447468 20.1252918456973 2469383.079075245 2.05675742422659 5146.55243157584 5.03526763339426 11.332352086933 2041632.19288938 T 78 CATAB v2.0c-linF95 2011-Sep-15 10:07:54 2011-Sep-15 13:00
2078-Mar-03 09:28 00:31 Earth 0.396905629270526 0.395241471838246 0.398569533414453 20.3037780085978 20.3034473713515 2480095.894579753 31.854285044309 81265.8903536251 1.12919342020342 -3.58679022928853 2878177.45052418 T 78 CATAB v2.0c-linF95 2011-Sep-15 10:07:54 2011-Sep-15 13:00
2081-Jan-03 16:53 03:56 Earth 0.0444580221783935 0.043732392706853 0.0451861258195203 7.78715629523985 7.77945616451949 2481133.203885707 236.457388624432 23052.0462470948 1.13540196019684 25.0487983019073 1415425.16253823 T 78 CATAB v2.0c-linF95 2011-Sep-15 10:07:54 2011-Sep-15 13:00
2083-Oct-30 16:45 00:25 Earth 0.490306461711548 0.488814895797818 0.491798197682125 22.6935156768379 22.6932762100733 2482163.198287952 25.18580749055 75450.9648297323 5.16188468091548 10.5814458833723 2341003.72572269 T 78 CATAB v2.0c-linF95 2011-Sep-15 10:07:54 2011-Sep-15 13:00
2113-Jan-17 10:02 02:26 Earth 0.0243136516402859 0.0236362428595413 0.024992572704144 8.09087586571457 8.07731989565902 2492833.918626336 146.128846506456 19141.7962629721 0.494967095750729 2.77678175743658 196312.322210569 T 78 CATAB v2.0c-linF95 2011-Sep-15 10:07:54 2011-Sep-15 13:00
2115-Oct-30 15:44 00:05 Earth 0.494618344441451 0.494365879774014 0.494870810928578 23.0942535739867 23.0940203139187 2493850.155878875 5.18624584273322 12644.0553815835 5.20342121586492 8.69155106103433 1934159.53191311 T 78 CATAB v2.0c-linF95 2011-Sep-15 10:07:54 2011-Sep-15 13:00
2139-Mar-06 06:28 04:04 Earth 0.368958765254193 0.356973271636527 0.380928468491244 19.9557075476467 19.9553456620243 2502377.769610711 244.417948633353 582557.099504915 1.48266421440472 -4.72344642990457 2672213.35332621 T 78 CATAB v2.0c-linF95 2011-Sep-15 10:07:54 2011-Sep-15 13:00
2141-Nov-27 19:58 11:28 Earth 0.125753451595225 0.116477885244458 0.135336277367556 11.1356327749198 11.1337298806962 2503375.332050139 688.48232358096 477456.701547728 3.57767280974249 33.5507843497615 2052612.69832245 T 78 CATAB v2.0c-linF95 2011-Sep-15 10:07:54 2011-Sep-15 13:00
2168-Jan-31 04:35 21:50 Earth 0.01165330429818 0.00100115996864362 0.0228593484026342 9.05576173512225 9.03047778152633 2512935.691215542 1310.23898915219 365797.319023263 0.23571246852239 -4.98214409983259 378291.146291875 T 78 CATAB v2.0c-linF95 2011-Sep-15 10:07:54 2011-Sep-15 13:00
Ephemeris | Orbit Diagram | Orbital Elements | Physical Parameters | Close-Approach Data ]
ABOUT SSD CREDITS/AWARDS PRIVACY/COPYRIGHT GLOSSARY LINKS
FirstGov 2013-May-24 08:37 UT
(server date/time)  
NASA Home Page
Site Manager:   Donald K. Yeomans
Webmaster  Alan B. Chamberlin